Regional Weather Roundup
Issued by NWS

Home | Current Version | Previous Version | Graphics & Text | Print | Product List | Glossary On
Versions: 1 2 3 4 5 6 7 8 9 10 11 12 13 14 15 16 17 18 19 20 21 22 23 24 25 26 27 28 29 30 31 32 33 34 35 36 37 38 39 40 41 42 43 44 45 46 47 48 49 50
000
ASUS43 KIND 230359
RWRIN

WEATHER ROUNDUP FOR INDIANA
NATIONAL WEATHER SERVICE INDIANAPOLIS IN
1200 AM EDT MON APR 23 2018

NOTE: "FAIR" INDICATES FEW OR NO CLOUDS BELOW 12,000 FEET WITH NO
SIGNIFICANT WEATHER AND/OR OBSTRUCTIONS TO VISIBILITY.

* - STATION DOES NOT REPORT WEATHER SUCH AS PRECIPITATION OR FOG.

+ - STATION NOT QUALITY CONTROLLED BY THE NATIONAL WEATHER SERVICE.
    USE DATA WITH CAUTION...ESPECIALLY DEWPOINT AND RELATIVE
    HUMIDITY OBSERVATIONS.

INZ001>003-010>013-019-020-230500-
NORTHWEST INDIANA

CITY           SKY/WX    TMP DP  RH WIND       PRES   REMARKS
KNOX *+        FAIR      46  25  42 E8        30.23F
MONTICELLO +   FAIR      51  24  34 E9        30.20S

$$

LMZ046-743>745-230500-
SOUTHERN LAKE MICHIGAN

STATION/POSITION TIME  TEMP    WIND        PRES    WAVE
                       AIR SEA DIR/SP/G            HT
                 (UTC) (F)     (DEG/KT/KT) (MB)    (FT)
BURNS HARBOR     0340   42      70/  8/ 10 1024.4F
MICHIGAN CITY    0330   42      40/  8/  9   N/A

$$

INZ004-005-014>016-021>024-230500-
NORTH CENTRAL INDIANA

CITY           SKY/WX    TMP DP  RH WIND       PRES   REMARKS
GOSHEN         FAIR      45  22  40 E8        30.25F
ROCHESTER +    FAIR      50  23  34 E8        30.23F
SOUTH BEND     FAIR      49  18  29 E9        30.26F
WARSAW +       FAIR      45  25  45 E8        30.24F

$$

INZ006>009-017-018-025>027-230500-
NORTHEAST INDIANA

CITY           SKY/WX    TMP DP  RH WIND       PRES   REMARKS
FORT WAYNE     MOCLDY    47  24  40 E15       30.24F

$$

INZ028-029-035-036-043>045-051>053-230500-
WEST CENTRAL INDIANA

CITY           SKY/WX    TMP DP  RH WIND       PRES   REMARKS
GREENCASTLE +  FAIR      54  30  40 NE8       30.14S
LAFAYETTE      FAIR      51  28  41 NE16G26   30.18F
TERRE HAUTE    CLOUDY    59  34  39 NE14      30.10F

$$

INZ030>032-037>040-046>048-054>057-064-065-230500-
CENTRAL INDIANA

CITY           SKY/WX    TMP DP  RH WIND       PRES   REMARKS
GREENWOOD *+   FAIR      54  32  43 NE8       30.15S
INDIANAPOLIS   CLOUDY    56  32  40 NE17      30.15S
-EAGLE CREEK   FAIR      56  32  40 NE12G20   30.15F
KOKOMO +       FAIR      48  26  42 E13       30.21S
MT COMFORT *+  FAIR      50  39  66 NE12      30.16F
SHELBYVILLE    FAIR      55  32  41 NE15      30.14S
ZIONSVILLE +   FAIR      50  31  47 E9        30.18S

$$

INZ033-034-041-042-049-050-058-059-230500-
EAST CENTRAL INDIANA

CITY           SKY/WX    TMP DP  RH WIND       PRES   REMARKS
MUNCIE         FAIR      50  27  40 E12       30.20S
RICHMOND +     FAIR      46  34  61 NE13      30.18S

$$

INZ060-061-067>069-081>083-085>088-230500-
SOUTHWEST INDIANA

CITY           SKY/WX    TMP DP  RH WIND       PRES   REMARKS
EVANSVILLE     LGT RAIN  59  45  59 NE12      30.04F
HUNTINGBURG +  CLOUDY    62  34  35 E9        30.05F

$$

INZ062-063-066-070>080-084-089>092-230500-
SOUTH CENTRAL AND SOUTHEAST INDIANA

CITY           SKY/WX    TMP DP  RH WIND       PRES   REMARKS
BLOOMINGTON    FAIR      60  28  29 E10       30.10F
FRENCH LICK *+ CLOUDY    59  23  25 NE14G21   30.07S
SEYMOUR +      CLOUDY    59  32  36 E10       30.10F

$$





USA.gov is the U.S. government's official web portal to all federal, state and local government web resources and services.